Temperature
19 19 19 19 17 17 19 19 19 19 19 19 19 19 18 18 18 18 18 18 18 18 18 18 18 18 18 18 18 18 18 18 18 18 18 18 18 17 17 17 17 17 17 17 17 17 17 17 17
19 19 19 18 17 18 19 19 19 19 19 19 19 19 18 18 18 18 17 18 18 18 18 18 18 18 18 18 18 18 18 18 18 17 17 17 17 17 17 17 17 17 17 17 17 17 17 17 17
19 19 19 16 17 18 19 19 19 20 20 20 19 18 18 18 18 18 18 18 18 18 18 18 17 18 18 18 18 18 18 17 17 17 17 17 17 17 17 17 17 17 17 17 17 17 17 17 17
19 19 18 17 19 19 19 19 19 20 20 20 19 18 18 18 18 18 18 18 18 18 17 17 17 17 17 17 17 17 17 17 17 17 17 16 16 16 16 16 16 16 16 16 16 16 16 17 17
19 18 17 17 18 19 19 19 20 20 19 19 19 17 17 18 18 18 18 18 18 18 17 17 17 17 17 17 17 17 17 17 16 16 16 16 16 16 16 16 16 16 16 16 16 16 16 16 17
19 17 17 17 18 19 19 19 19 19 19 19 18 17 17 18 18 18 18 18 18 17 17 17 17 17 17 17 17 17 16 16 16 16 16 16 16 16 15 15 15 15 16 16 16 16 16 16 17
18 16 17 18 18 19 19 20 19 19 19 19 19 17 17 17 18 18 17 17 17 17 17 17 17 17 17 17 16 16 16 16 16 16 16 16 16 15 15 15 15 15 15 15 15 16 16 16 16
19 16 17 17 18 19 19 20 20 19 19 19 19 18 17 17 17 17 17 17 17 17 17 17 17 17 17 16 16 16 16 16 16 16 15 15 15 15 15 15 15 15 15 15 15 15 15 16 16
19 16 17 18 18 19 19 19 19 20 19 19 18 18 18 18 17 17 17 17 17 17 17 17 17 17 17 16 16 16 16 16 16 16 15 15 15 15 15 15 15 15 15 15 15 15 15 15 16
18 16 18 18 18 19 19 19 19 19 19 18 18 18 18 18 18 18 18 17 17 17 17 17 17 17 17 16 16 16 16 16 16 16 16 15 15 15 15 15 15 15 15 15 15 15 15 15 15
18 17 18 18 19 19 19 19 19 19 18 18 18 18 18 18 18 18 18 18 18 17 17 17 17 17 17 16 16 16 16 16 16 16 15 15 15 15 15 15 15 15 15 15 15 15 15 15 15
18 18 18 19 19 19 19 19 19 19 19 19 19 19 18 18 18 18 18 18 18 17 17 17 17 17 17 16 16 16 16 16 16 15 15 15 15 15 15 15 15 15 15 15 15 15 15 15 15
18 18 19 19 20 20 19 19 19 19 19 19 19 18 18 18 18 18 18 18 18 18 17 17 17 17 17 17 16 16 16 16 16 15 15 15 15 15 15 15 14 14 14 15 15 15 15 15 15
18 18 19 19 19 19 19 19 19 18 19 19 18 18 18 18 18 18 18 18 18 18 18 17 17 17 17 16 16 16 16 16 15 15 15 15 15 15 14 14 14 14 14 14 15 15 15 15 15
19 18 18 18 19 19 19 19 18 18 19 18 18 18 18 18 18 18 18 18 18 18 18 17 17 17 17 16 16 16 16 16 15 15 15 15 15 14 14 14 14 14 14 14 14 14 14 14 15
19 18 18 18 19 19 19 18 18 18 19 18 18 18 18 18 18 19 18 18 18 18 18 17 17 17 17 16 16 16 16 15 15 15 15 15 14 14 14 14 14 14 14 14 14 14 14 14 15
17 17 18 18 19 19 18 18 18 18 18 18 18 18 18 18 18 19 18 18 18 18 18 18 17 17 17 16 16 16 16 15 15 15 15 14 14 14 14 14 14 14 14 14 14 14 14 14 15
17 17 18 18 18 18 18 17 17 18 18 18 18 18 18 18 18 19 19 18 18 18 18 18 17 17 17 16 16 16 15 15 15 15 14 14 14 14 14 14 14 14 14 14 14 14 14 14 14
18 18 18 18 18 18 18 18 17 17 17 17 17 18 18 18 19 19 19 18 18 18 18 18 17 17 17 16 16 16 15 15 15 15 14 14 14 14 14 14 14 14 14 14 14 14 14 14 14
18 17 17 18 18 18 17 17 17 17 17 17 17 18 18 18 18 18 18 18 19 18 18 18 17 17 17 16 16 16 15 15 15 15 14 14 14 14 14 14 14 14 14 14 14 14 14 14 14
18 17 17 18 18 18 18 17 17 17 17 17 17 18 18 19 19 19 19 19 19 18 18 18 18 17 17 16 16 16 15 15 15 15 14 14 14 14 14 14 14 14 14 14 14 14 14 14 14
18 18 18 18 17 16 17 17 17 17 17 17 17 18 18 19 19 19 19 19 19 18 18 18 18 17 17 16 16 16 16 15 15 15 15 14 14 14 14 14 14 14 14 14 14 14 14 14 14
18 18 18 18 17 16 16 16 16 16 17 16 17 18 18 19 19 19 19 19 19 18 18 18 18 17 17 17 16 16 16 15 15 15 15 14 14 14 14 14 14 14 14 14 14 14 14 14 14
18 17 17 16 16 16 16 16 16 15 17 17 17 18 18 19 19 19 19 19 19 18 18 18 18 17 17 17 16 16 16 16 15 15 15 15 14 14 14 14 14 14 14 14 14 14 14 14 14
17 16 16 16 16 16 16 16 16 17 17 17 17 18 18 19 19 19 19 19 18 18 18 18 17 17 17 17 16 16 16 15 15 15 15 15 14 14 14 14 14 14 14 14 14 14 14 14 14
17 17 16 17 16 16 17 16 17 17 17 18 18 19 19 19 19 19 19 19 18 18 18 18 17 17 17 17 16 16 16 15 15 15 15 15 14 14 14 14 14 14 14 14 14 14 14 14 14
17 16 16 15 16 16 16 17 17 17 17 17 17 18 18 18 18 19 19 19 18 18 18 18 17 17 17 17 16 16 16 16 15 15 15 15 15 14 14 14 14 14 14 14 14 14 14 14 14
17 16 15 16 16 16 17 17 17 17 17 16 16 17 18 18 18 18 19 18 18 18 18 17 17 17 17 16 16 16 16 16 15 15 15 15 15 14 14 14 14 14 14 14 14 14 14 14 14
17 17 15 14 15 16 17 17 17 17 17 16 16 17 18 18 18 18 18 18 18 18 18 17 17 17 17 16 16 16 16 15 15 15 15 15 15 14 14 14 14 14 14 14 14 14 14 14 14
18 17 16 16 16 15 16 16 17 16 16 16 16 17 18 18 18 18 18 18 18 18 17 17 17 17 17 16 16 16 16 15 15 15 15 15 14 14 14 14 14 14 14 14 14 14 14 14 14
Wind_Speed
2 3 3 3 5 5 2 1 1 1 2 2 3 5 6 4 2 3 1 4 7 6 7 10 11 11 12 12 12 12 12 12 11 11 11 11 10 9 9 8 7 7 6 6 6 6 6 5 5
1 2 3 4 4 3 2 1 1 0 3 3 4 5 5 4 4 5 3 5 7 7 8 9 11 11 11 12 11 11 11 11 11 11 10 10 9 9 8 7 6 5 5 6 6 6 6 5 5
1 2 3 4 3 3 1 0 1 2 3 2 4 4 4 3 4 4 4 8 7 7 8 9 10 11 11 11 11 10 10 10 10 10 9 9 8 7 7 6 5 5 5 5 6 5 5 6 6
3 4 4 4 2 1 2 1 2 3 2 4 4 4 3 3 3 5 8 9 9 6 8 9 10 10 11 10 10 10 10 9 9 9 9 8 7 6 6 6 5 5 5 5 6 5 5 5 6
4 4 4 3 1 2 1 0 2 3 2 3 4 4 3 4 5 9 9 9 9 6 7 9 10 10 10 10 10 9 8 8 8 7 7 6 6 6 5 5 5 5 5 5 5 6 6 6 6
4 4 4 1 1 2 1 1 3 4 3 3 4 4 2 2 6 8 8 7 7 6 6 7 9 9 9 8 8 7 7 6 6 6 5 5 5 5 4 5 5 5 5 5 6 6 6 6 6
3 3 2 2 0 1 1 1 3 3 4 3 4 5 2 2 5 7 7 6 6 6 5 5 6 6 7 7 6 5 5 5 4 4 4 4 5 5 5 5 5 5 5 5 6 6 6 6 6
4 4 2 1 1 0 1 2 2 3 3 3 3 6 5 5 6 7 7 6 5 5 4 4 5 5 5 4 4 4 3 3 4 4 5 5 6 6 6 6 6 6 6 6 6 6 6 6 6
3 4 1 2 2 0 1 2 2 2 5 3 3 3 5 10 9 8 6 4 3 3 3 2 2 3 3 3 3 4 4 5 5 6 6 6 6 6 7 7 7 7 7 7 7 7 6 6 6
4 2 3 2 2 2 1 2 2 3 5 4 6 6 9 10 10 8 7 5 4 3 2 2 2 1 2 2 3 4 5 5 6 5 5 5 5 6 6 8 8 8 8 8 8 7 7 7 6
3 3 2 0 1 2 2 2 2 5 3 4 8 10 10 9 8 8 6 5 4 3 2 2 2 1 1 1 3 3 4 5 5 6 5 5 5 6 6 7 8 8 8 7 8 8 7 6 5
2 1 1 0 1 2 2 3 3 2 2 4 8 11 9 9 8 8 7 5 3 3 3 2 2 2 1 2 2 2 3 3 4 4 4 4 3 4 4 4 5 6 6 6 6 5 5 5 5
1 1 1 2 4 3 5 4 3 3 5 8 9 9 8 7 6 4 4 4 4 3 2 2 2 2 2 2 1 2 2 2 3 3 4 3 2 2 3 3 5 5 5 4 4 4 4 4 4
2 1 3 3 3 2 5 4 4 3 6 9 8 7 6 6 6 5 5 4 4 3 3 2 2 3 3 2 2 1 2 2 3 3 4 3 3 2 2 3 3 4 5 4 3 3 3 3 3
1 3 5 3 2 2 5 5 3 2 7 8 7 5 4 3 4 5 6 6 5 4 3 3 3 3 4 3 2 2 3 3 3 3 4 4 4 3 2 2 3 4 5 4 4 3 3 3 3
4 4 3 3 2 2 5 2 1 3 7 7 5 5 4 3 3 4 4 5 5 5 4 3 3 4 4 3 3 3 3 4 3 3 4 4 4 4 3 2 3 5 5 4 2 3 3 3 3
5 3 1 3 2 2 4 1 0 3 6 6 5 5 4 3 2 3 4 5 5 5 5 4 4 4 4 4 4 4 4 4 4 4 4 4 5 5 4 2 3 5 4 3 3 3 2 2 3
2 2 1 0 1 3 4 1 1 3 5 5 4 4 3 3 3 3 3 4 4 4 4 5 5 4 5 4 4 3 4 3 4 4 4 4 5 5 4 3 4 4 3 3 3 3 3 2 2
4 4 2 1 1 3 3 2 1 2 3 3 3 3 4 3 2 2 3 4 4 4 4 4 5 4 4 3 3 2 2 2 2 3 4 5 5 5 4 3 3 3 3 3 3 2 3 3 3
5 4 1 1 2 3 3 2 1 2 4 4 5 4 4 3 2 2 3 3 4 4 4 4 4 4 3 2 2 2 2 1 1 2 4 5 5 5 4 3 3 3 3 4 3 2 2 2 3
3 5 4 3 2 4 3 3 2 1 2 2 2 3 3 5 5 4 3 3 3 4 5 5 4 4 3 3 3 3 3 3 3 3 3 4 5 5 4 3 2 2 2 2 2 2 2 1 3
2 3 5 4 4 2 2 0 3 1 1 1 2 3 4 4 4 4 4 3 3 3 3 4 4 4 4 4 4 4 2 1 1 1 2 4 5 5 5 4 3 2 2 2 2 1 1 1 1
3 4 5 4 4 3 3 2 4 0 2 4 5 4 4 4 5 5 5 5 3 3 4 4 4 3 3 3 4 4 3 1 0 1 3 4 4 5 5 4 3 3 2 2 2 2 1 1 1
6 7 6 5 4 1 1 2 3 3 6 5 5 5 4 4 4 4 4 4 3 3 4 4 4 3 3 3 4 4 3 2 1 2 3 3 3 3 5 4 3 2 2 2 2 2 1 1 1
5 6 3 3 2 2 2 2 5 5 5 6 7 6 5 5 5 4 5 5 4 4 4 4 4 2 2 3 3 3 3 2 1 0 1 2 2 3 4 3 3 2 2 2 2 2 2 1 1
4 5 5 4 3 2 1 3 5 4 2 3 4 5 5 5 4 4 5 5 4 4 4 4 4 3 2 2 2 2 2 2 1 1 1 1 2 2 3 3 2 3 3 2 2 2 2 1 1
5 3 4 6 3 1 3 4 5 2 4 4 5 6 6 5 4 4 4 4 4 4 4 5 5 3 2 2 2 2 1 1 1 1 1 1 2 2 2 2 2 3 2 2 2 2 2 2 1
5 7 5 5 4 1 2 3 3 3 2 3 5 5 5 5 4 4 4 3 3 3 3 3 4 3 2 2 2 2 1 2 1 1 1 2 2 2 2 2 2 3 3 2 2 1 2 2 2
4 4 4 4 4 5 2 5 4 6 6 7 6 6 6 6 5 4 3 3 3 3 3 3 2 2 2 1 1 1 0 0 0 0 2 2 2 2 2 2 2 3 3 2 2 2 2 2 3
5 6 7 5 3 4 3 5 3 4 5 7 7 6 6 6 5 4 4 4 4 3 2 2 2 2 1 1 1 1 1 1 1 1 2 2 2 2 2 1 2 2 3 2 2 2 2 2 2
Wind_Direction
49 70 64 49 51 52 44 336 317 11 50 50 68 88 98 84 90 125 120 130 123 118 116 118 115 110 107 106 103 101 98 96 94 95 94 93 92 92 90 86 83 80 77 72 65 59 55 54 54
84 73 50 54 77 67 344 316 2 16 140 137 78 75 78 72 72 106 119 128 123 119 117 118 116 112 109 105 102 100 98 96 94 94 92 91 90 88 86 82 78 73 70 67 59 50 44 44 41
86 47 66 66 85 140 179 333 112 93 127 108 78 60 71 89 113 134 147 133 119 115 117 122 118 114 110 106 103 100 98 96 95 93 89 87 87 86 82 76 70 63 59 56 50 42 37 34 30
66 41 51 66 82 212 211 187 130 122 88 60 92 72 56 41 133 138 133 129 120 116 119 124 119 115 111 107 103 100 98 96 94 91 89 86 83 78 70 62 57 49 44 40 36 28 26 25 19
55 69 58 50 11 313 306 281 132 119 99 78 96 87 40 10 98 119 126 127 126 120 117 125 123 117 112 107 103 101 100 97 94 92 89 83 76 68 62 53 45 33 25 21 19 14 9 11 11
55 64 80 102 317 326 340 40 96 84 96 99 98 96 54 65 116 127 127 124 125 121 111 116 121 116 112 108 105 103 100 96 91 84 78 69 60 47 37 28 24 20 15 9 6 5 3 2 2
98 90 125 154 218 3 43 52 105 108 96 101 109 100 95 123 130 125 118 111 107 105 101 93 100 107 112 109 105 99 93 86 78 63 52 44 36 24 14 9 6 6 2 1 1 360 0 4 3
113 101 89 128 133 348 7 59 83 106 110 105 99 127 157 167 128 109 99 93 92 90 89 84 81 83 79 80 93 87 76 61 46 35 29 30 27 16 7 4 1 358 355 355 355 355 358 3 5
87 77 148 194 163 270 19 67 44 65 94 69 61 116 140 129 118 112 104 90 94 103 90 92 87 79 72 63 56 43 35 33 28 25 27 30 22 10 5 1 360 359 357 358 359 357 0 6 7
82 126 211 207 181 153 72 73 83 72 75 72 76 82 112 123 131 137 144 149 153 157 156 138 119 95 77 59 48 34 31 30 28 30 30 26 19 14 14 10 7 5 5 8 10 11 16 18 12
126 176 226 277 164 133 110 73 63 103 101 156 147 137 132 136 144 152 161 164 173 171 167 165 150 128 92 42 33 29 34 34 31 33 40 41 32 22 18 11 5 5 9 12 10 16 17 15 9
128 245 192 64 94 100 107 100 75 88 170 151 144 140 141 150 160 165 167 167 157 151 173 173 146 136 121 93 48 38 39 31 23 23 36 49 36 25 16 15 6 7 8 9 13 12 11 10 10
161 295 68 107 82 80 80 83 98 64 94 106 116 128 143 153 160 162 157 157 153 161 170 166 149 141 114 97 66 61 48 38 28 27 35 56 58 31 22 18 14 9 11 13 8 11 12 9 7
179 101 59 59 75 69 90 66 70 78 112 119 130 144 158 163 167 158 152 154 165 173 172 164 131 122 116 114 107 79 66 57 51 41 40 61 71 60 39 19 12 10 11 12 18 21 14 2 4
87 75 47 30 63 72 97 53 41 140 128 131 144 153 157 171 178 174 171 171 174 170 161 146 132 112 115 115 102 82 70 71 58 43 43 55 66 66 58 25 7 1 4 13 25 27 25 15 15
56 64 51 346 67 98 108 117 352 131 136 145 157 156 162 184 191 184 174 172 162 156 154 144 124 115 112 104 89 78 72 69 56 50 49 48 51 55 56 31 5 358 9 19 21 27 27 18 15
41 76 79 350 17 90 111 155 353 131 143 154 165 165 168 183 184 177 175 171 160 161 151 128 112 112 106 96 85 77 73 64 52 52 47 40 41 44 50 34 8 9 19 17 16 35 36 21 9
144 116 102 142 1 97 111 127 84 130 141 160 169 170 175 182 200 179 167 155 147 142 136 128 114 104 97 86 76 61 54 40 39 37 28 30 32 34 41 34 18 20 27 20 22 30 31 26 7
140 137 130 269 236 114 125 141 155 134 135 158 171 184 189 202 195 151 146 133 129 127 130 134 126 122 113 96 92 84 59 15 14 11 14 21 22 25 34 24 16 22 29 12 16 33 32 19 6
124 123 140 19 46 99 102 69 54 154 176 186 186 190 192 176 141 133 125 128 140 149 149 144 146 147 140 124 122 121 121 65 356 343 5 17 16 15 21 25 10 12 23 19 21 37 39 17 26
139 158 170 163 82 53 81 25 16 130 134 148 183 188 183 181 180 168 153 152 148 165 169 161 158 147 133 115 99 77 55 34 17 3 352 351 0 7 16 19 20 16 28 15 4 26 71 39 18
191 186 150 131 103 36 66 146 296 228 174 218 222 202 202 188 174 170 168 164 175 188 163 147 142 133 128 124 118 115 109 101 292 304 321 339 2 7 13 15 17 17 18 8 351 32 67 100 35
154 111 107 102 104 70 35 120 286 159 215 240 232 214 211 191 176 179 178 175 170 155 139 135 125 123 126 127 129 119 109 126 346 351 359 359 358 8 10 12 15 12 9 2 3 15 42 103 141
110 86 69 52 72 68 256 152 270 229 215 220 217 207 201 188 172 169 159 146 141 126 123 126 125 128 132 130 128 130 133 121 63 17 3 351 346 349 358 1 5 3 5 358 356 4 31 54 97
96 102 70 29 22 260 222 169 250 249 223 202 198 196 189 172 158 156 153 150 148 143 140 136 136 140 142 139 143 149 151 145 156 238 312 331 338 337 336 348 347 349 346 353 10 26 18 16 45
151 139 153 171 198 271 329 235 258 277 238 176 160 155 146 149 159 158 161 162 159 153 147 145 154 164 157 155 160 154 151 155 202 227 230 265 276 287 313 335 344 345 352 8 25 26 6 18 11
132 141 152 126 121 70 292 292 315 48 75 105 121 124 134 148 154 151 150 154 156 156 161 166 165 167 169 171 154 160 173 180 222 257 268 283 287 299 325 344 351 346 356 4 25 25 356 2 352
132 141 107 115 137 192 298 282 246 224 175 145 144 144 143 139 139 141 144 147 149 150 147 143 156 168 170 167 176 175 203 216 222 230 288 301 308 323 342 351 352 350 355 3 28 14 360 19 352
126 116 112 113 144 149 205 267 232 204 189 174 174 162 154 152 150 148 143 130 119 112 121 131 140 132 129 151 157 137 193 254 206 290 291 296 312 320 331 336 350 356 358 0 21 3 10 13 349
161 164 151 150 183 162 167 263 304 198 174 165 161 157 153 147 143 138 127 111 103 109 116 130 135 135 151 144 118 108 78 59 38 346 323 319 324 324 330 350 359 352 353 357 6 348 355 358 339
Height
1500 1500 1500 1501 1504 1511 1514 1509 1505 1505 1505 1505 1505 1506 1508 1511 1514 1520 1517 1516 1518 1519 1521 1523 1524 1525 1526 1527 1528 1528 1529 1529 1530 1530 1531 1531 1531 1532 1532 1533 1533 1533 1533 1533 1533 1533 1533 1533 1533
1500 1501 1502 1502 1509 1520 1516 1508 1507 1505 1505 1506 1506 1507 1509 1511 1513 1515 1515 1517 1519 1521 1522 1524 1525 1526 1527 1528 1529 1529 1530 1530 1531 1531 1531 1532 1532 1532 1533 1533 1533 1534 1533 1533 1533 1533 1533 1533 1533
1501 1501 1503 1505 1512 1518 1514 1507 1506 1505 1506 1506 1508 1509 1511 1513 1514 1515 1517 1519 1521 1522 1524 1526 1527 1528 1529 1529 1530 1531 1531 1532 1532 1532 1532 1533 1533 1533 1533 1533 1534 1534 1534 1533 1533 1533 1533 1533 1533
1502 1503 1504 1509 1512 1510 1508 1506 1505 1506 1507 1507 1509 1511 1513 1515 1516 1517 1518 1520 1522 1524 1526 1527 1528 1529 1530 1531 1531 1532 1532 1533 1533 1533 1533 1534 1534 1534 1534 1534 1534 1534 1534 1533 1533 1533 1533 1533 1533
1502 1503 1508 1513 1512 1508 1506 1505 1505 1505 1507 1509 1510 1513 1515 1517 1517 1518 1520 1522 1524 1526 1528 1529 1530 1531 1531 1532 1533 1533 1534 1534 1535 1535 1535 1535 1535 1535 1535 1534 1534 1534 1533 1533 1533 1533 1533 1533 1533
1504 1505 1515 1519 1513 1508 1506 1506 1506 1507 1508 1510 1511 1513 1517 1518 1519 1521 1522 1524 1526 1528 1529 1531 1531 1532 1533 1533 1534 1535 1535 1536 1536 1536 1536 1536 1536 1535 1535 1535 1534 1534 1533 1533 1533 1533 1533 1533 1533
1505 1509 1515 1515 1514 1510 1507 1506 1507 1508 1509 1511 1512 1515 1518 1520 1521 1523 1524 1526 1528 1530 1531 1532 1533 1534 1534 1535 1536 1536 1537 1537 1537 1537 1537 1537 1536 1536 1535 1535 1534 1534 1533 1533 1532 1532 1532 1532 1532
1504 1509 1514 1515 1514 1511 1508 1507 1508 1509 1511 1512 1513 1515 1518 1521 1522 1524 1526 1528 1530 1531 1533 1534 1535 1535 1536 1537 1537 1538 1538 1538 1538 1538 1538 1538 1537 1536 1536 1535 1535 1534 1533 1533 1533 1532 1532 1532 1532
1505 1513 1517 1514 1513 1510 1508 1508 1509 1510 1511 1513 1514 1516 1518 1521 1523 1526 1528 1530 1531 1533 1534 1535 1536 1537 1538 1538 1539 1539 1539 1540 1539 1539 1539 1538 1538 1537 1536 1535 1535 1534 1534 1533 1533 1532 1532 1532 1532
1506 1514 1512 1509 1508 1509 1509 1509 1510 1512 1513 1515 1516 1518 1520 1522 1524 1527 1529 1530 1532 1534 1535 1537 1537 1538 1539 1540 1540 1540 1540 1540 1540 1540 1539 1539 1538 1537 1536 1536 1535 1534 1534 1533 1533 1532 1532 1532 1532
1506 1510 1508 1507 1507 1508 1509 1511 1512 1513 1515 1516 1517 1518 1521 1523 1526 1528 1530 1532 1533 1535 1536 1538 1538 1539 1540 1541 1541 1541 1541 1541 1541 1541 1540 1539 1538 1538 1537 1536 1535 1534 1534 1533 1533 1532 1532 1532 1532
1507 1507 1507 1508 1508 1509 1510 1511 1513 1514 1516 1517 1518 1520 1522 1524 1526 1529 1531 1533 1534 1536 1537 1538 1539 1540 1541 1542 1542 1542 1542 1542 1542 1541 1540 1539 1539 1538 1537 1536 1535 1534 1534 1533 1533 1532 1532 1532 1532
1507 1507 1508 1508 1508 1509 1510 1512 1514 1516 1517 1518 1520 1523 1525 1526 1529 1531 1533 1535 1536 1537 1538 1539 1540 1541 1542 1543 1543 1543 1543 1543 1542 1542 1541 1540 1539 1538 1537 1536 1535 1534 1534 1533 1533 1532 1532 1532 1531
1507 1507 1508 1509 1510 1511 1513 1515 1516 1518 1519 1520 1522 1524 1526 1528 1530 1532 1534 1536 1537 1538 1539 1540 1541 1542 1543 1543 1544 1544 1544 1543 1543 1542 1541 1540 1539 1538 1537 1536 1535 1535 1534 1533 1532 1532 1532 1531 1531
1507 1509 1510 1511 1512 1513 1514 1518 1519 1519 1520 1522 1524 1525 1527 1529 1531 1532 1535 1536 1538 1539 1541 1541 1542 1543 1543 1544 1544 1544 1544 1544 1543 1542 1541 1540 1539 1538 1537 1536 1535 1534 1534 1533 1532 1532 1531 1531 1531
1508 1513 1519 1515 1513 1514 1518 1525 1520 1520 1521 1523 1525 1526 1528 1530 1532 1533 1535 1537 1539 1541 1542 1542 1543 1544 1544 1544 1545 1545 1544 1544 1543 1543 1542 1541 1540 1539 1538 1536 1535 1534 1534 1533 1532 1531 1531 1531 1530
1517 1522 1522 1518 1514 1515 1519 1524 1521 1521 1522 1523 1525 1527 1529 1530 1532 1534 1536 1538 1540 1541 1542 1543 1544 1544 1545 1545 1545 1545 1545 1544 1544 1543 1542 1541 1540 1539 1538 1537 1536 1535 1534 1533 1532 1532 1531 1531 1530
1523 1524 1523 1522 1518 1517 1520 1523 1521 1522 1522 1524 1526 1528 1529 1531 1533 1534 1536 1538 1540 1542 1543 1544 1544 1545 1545 1545 1546 1545 1545 1545 1545 1544 1543 1542 1541 1540 1538 1537 1536 1535 1534 1533 1533 1532 1531 1531 1530
1516 1521 1524 1521 1517 1519 1521 1523 1522 1522 1524 1525 1526 1528 1530 1531 1533 1535 1537 1539 1540 1542 1543 1544 1545 1545 1546 1546 1546 1546 1546 1546 1545 1545 1544 1543 1542 1540 1539 1538 1537 1536 1535 1534 1533 1533 1532 1531 1531
1516 1521 1524 1521 1518 1520 1523 1524 1523 1523 1524 1524 1525 1527 1529 1531 1533 1535 1537 1538 1540 1542 1543 1544 1545 1546 1546 1547 1547 1547 1546 1546 1546 1545 1545 1543 1542 1541 1540 1538 1537 1536 1535 1534 1534 1533 1533 1532 1532
1518 1521 1522 1523 1521 1521 1524 1528 1526 1524 1524 1525 1526 1527 1529 1530 1532 1534 1536 1538 1540 1541 1543 1544 1545 1546 1547 1547 1547 1547 1547 1547 1546 1546 1545 1544 1543 1542 1540 1539 1538 1537 1536 1535 1534 1534 1533 1533 1532
1519 1515 1516 1520 1526 1533 1530 1540 1530 1526 1525 1525 1526 1526 1527 1529 1532 1534 1536 1538 1539 1541 1543 1544 1546 1546 1547 1548 1548 1548 1547 1547 1547 1546 1545 1544 1543 1542 1541 1539 1538 1537 1536 1536 1535 1534 1534 1533 1533
1514 1513 1517 1521 1527 1534 1534 1539 1536 1527 1528 1526 1524 1525 1526 1528 1531 1533 1535 1537 1539 1541 1543 1544 1546 1546 1547 1548 1548 1548 1548 1547 1547 1546 1546 1545 1544 1543 1541 1540 1539 1538 1537 1536 1535 1535 1534 1534 1533
1512 1518 1522 1527 1532 1542 1537 1540 1539 1531 1525 1523 1522 1523 1525 1528 1530 1532 1535 1537 1539 1541 1542 1544 1545 1546 1547 1548 1548 1548 1548 1548 1547 1547 1546 1545 1544 1543 1542 1541 1540 1539 1538 1537 1536 1535 1535 1534 1534
1515 1526 1539 1543 1547 1545 1535 1538 1535 1521 1519 1518 1520 1522 1524 1527 1529 1532 1534 1536 1538 1540 1542 1544 1545 1546 1547 1548 1548 1548 1548 1548 1547 1547 1546 1545 1544 1543 1542 1541 1540 1539 1538 1537 1536 1536 1535 1534 1534
1517 1523 1538 1547 1550 1545 1536 1537 1527 1517 1516 1516 1518 1520 1523 1526 1529 1531 1533 1536 1538 1540 1542 1543 1545 1546 1547 1547 1548 1548 1548 1548 1547 1547 1546 1545 1545 1544 1543 1542 1540 1539 1538 1538 1537 1536 1535 1534 1534
1518 1523 1523 1536 1540 1545 1540 1532 1522 1516 1516 1517 1518 1520 1523 1526 1528 1531 1534 1536 1538 1540 1541 1543 1544 1545 1546 1547 1547 1548 1548 1548 1547 1547 1546 1545 1545 1544 1543 1542 1541 1540 1539 1538 1537 1536 1535 1535 1534
1512 1518 1528 1536 1546 1549 1540 1535 1531 1520 1519 1518 1519 1520 1523 1526 1528 1531 1534 1536 1538 1540 1541 1543 1544 1545 1546 1546 1547 1547 1547 1547 1547 1546 1546 1545 1544 1544 1543 1542 1541 1540 1539 1538 1537 1536 1535 1535 1534
1516 1520 1525 1533 1535 1546 1547 1538 1517 1516 1515 1517 1518 1520 1522 1525 1528 1531 1533 1536 1538 1539 1541 1542 1543 1544 1545 1546 1546 1546 1547 1547 1546 1546 1545 1545 1544 1543 1542 1542 1541 1540 1539 1538 1537 1536 1535 1534 1533
1507 1513 1521 1531 1536 1538 1541 1536 1512 1512 1513 1515 1518 1520 1523 1526 1529 1531 1534 1536 1537 1539 1541 1542 1543 1543 1544 1545 1545 1546 1546 1546 1545 1545 1544 1544 1543 1543 1542 1541 1540 1539 1538 1537 1536 1535 1534 1533 1533